STARLINK-35804 (66371 NORAD) Tracking and Keplerian Element Data

This shows tracking and keplerian element data for the satellite.

Feedback or suggestion? Click here.




ElementValue
Catalog66371
NameSTARLINK-35804
Epoch Orbit579
Epoch Day354.25003472
Epoch Year2025
RAAN239.121
Inclination53.1588
Eccentricity0.0002056
Argument of Perigee88.52
Mean Anonmoly325.3227
Mean Motion15.34521396
Decay Rate-0.02426309
L11 66371U 25254Z 25354.25003472 -.02426309 00000+0 -80744-1 0 9994
L22 66371 53.1588 239.1210 0002056 88.5200 325.3227 15.34521396 5793



Live tracking and technical data element details for STARLINK-35804 (NORAD 66371). STARLINK-35804 can be tracked NOW for your location showing map with azimuth and elevation plus other details from your city location.







IsCatalogInMostPopularTable: catalog: 66371, numindb: 8
Update: records affected: 1



GetName: 66371 STARLINK-35804

Hit Count: updated at: Mon, 20 Apr 2026 09:18:41 GMT